Location: Kimberly
(42.5380°N, 114.3640°W)
Time: 02:36:31
(UTC-06:00)

Tiangong 1 - Visible Passes

Search period start: 23 June 2017 00:00
Search period end: 03 July 2017 00:00
Orbit: 321 x 345 km, 42.8° (Epoch: 22 June)

Date Brightness Start Highest point End Pass type
(mag) Time Alt. Az. Time Alt. Az. Time Alt. Az.
23 Jun 0.6 23:17:07 10° W 23:19:54 89° NNW 23:20:28 52° E visible
24 Jun 0.7 22:01:01 10° WSW 22:03:48 61° SSE 22:06:32 10° E visible
24 Jun 0.9 23:36:35 10° W 23:39:05 68° WNW 23:39:05 68° WNW visible
25 Jun 0.7 22:20:22 10° W 22:23:10 89° NW 22:25:57 10° E visible
25 Jun 2.5 23:55:59 10° W 23:57:28 28° W 23:57:28 28° W visible
26 Jun 0.7 22:39:45 10° W 22:42:33 83° N 22:44:35 17° E visible
27 Jun 3.6 00:15:23 10° W 00:15:43 12° W 00:15:43 12° W visible
27 Jun 0.6 22:59:05 10° W 23:01:53 78° S 23:02:44 39° ESE visible
28 Jun 1.3 23:18:23 10° W 23:20:49 43° SW 23:20:49 43° SW visible
29 Jun 0.7 22:02:01 10° W 22:04:50 78° S 22:07:36 10° ESE visible
29 Jun 3.1 23:37:53 10° W 23:38:52 16° WSW 23:38:52 16° WSW visible
30 Jun 1.2 22:21:15 10° W 22:23:58 45° SSW 22:25:45 18° SE visible
01 Jul 2.3 22:40:39 10° W 22:42:57 23° SSW 22:43:45 20° S visible
02 Jul 3.4 23:01:07 10° SW 23:01:45 11° SW 23:01:45 11° SW visible
